Farmington, MO

2:29 PM CDT on September 22, 2019 (GMT -0500)
Farmington Regional

Weather History for KFAM - August, 2019

Change the Weather History Date:

Monday, August 19, 2019

  Actual Average Record
Temperature  
Mean Temperature 80 °F -  
Max Temperature 93 °F 83 °F 93 °F (2005)
Min Temperature 69 °F 63 °F 53 °F (2008)
Cooling Degree Days 15    
Growing Degree Days 30 (Base 50)    
Moisture  
Dew Point 73 °F    
Average Humidity 79    
Maximum Humidity 100    
Minimum Humidity 54    
Precipitation  
Precipitation 0.04 in - - ()
Sea Level Pressure  
Sea Level Pressure 30.02 in    
Wind  
Wind Speed 2 mph ()    
Max Wind Speed 12 mph    
Max Gust Speed 17 mph    
Visibility 9.7 miles    
Events Rain , Thunderstorm    
Averages and records for this station are not official NWS values.
T = Trace of Precipitation, MM = Missing Value Source: Averaged Metar Reports

Daily Weather History Graph

Daily Weather History Graph

Search for Another Location

Airport or City:

Astronomy

Aug. 19, 2019 Rise Set
Actual Time 6:20 AM CDT 7:49 PM CDT
Civil Twilight 5:52 AM CDT 8:17 PM CDT
Nautical Twilight 5:19 AM CDT 8:50 PM CDT
Astronomical Twilight 4:44 AM CDT 9:25 PM CDT
Moon 10:14 PM CDT (8/19) 9:58 AM CDT (8/19)
Length of Visible Light 14h 24m
Length of Day
13h 29m
Waning Gibbous, 85% of the Moon is Illuminated
Aug 19
Waning Gibbous
Aug 23
Last Quarter
Aug 30
New
Sep 5
First Quarter
Sep 13
Full

Hourly Weather History & Observations

Time (CDT) Temp. Heat Index Dew Point Humidity Pressure Visibility Wind Dir Wind Speed Gust Speed Precip Events Conditions
12:56 AM 71.1 °F - 66.9 °F 87% 30.00 in 10.0 mi Calm Calm - N/A   Clear
1:56 AM 71.1 °F - 68.0 °F 90% 29.99 in 10.0 mi Calm Calm - N/A   Clear
2:56 AM 71.1 °F - 68.0 °F 90% 29.98 in 10.0 mi SSE 3.5 mph - N/A   Clear
3:56 AM 70.0 °F - 68.0 °F 93% 29.99 in 10.0 mi Calm Calm - N/A   Clear
4:56 AM 69.1 °F - 68.0 °F 96% 30.00 in 10.0 mi Calm Calm - N/A   Clear
5:56 AM 69.1 °F - 69.1 °F 100% 30.00 in 10.0 mi Calm Calm - N/A   Clear
6:56 AM 70.0 °F - 69.1 °F 97% 30.02 in 6.0 mi Calm Calm - N/A   Clear
7:56 AM 73.9 °F - 72.0 °F 93% 30.04 in 10.0 mi Calm Calm - N/A   Mostly Cloudy
8:56 AM 80.1 °F 84.5 °F 73.9 °F 81% 30.04 in 10.0 mi Calm Calm - N/A   Scattered Clouds
9:56 AM 86.0 °F 95.1 °F 75.0 °F 70% 30.06 in 10.0 mi South 3.5 mph - N/A   Scattered Clouds
10:56 AM 89.1 °F 99.1 °F 75.0 °F 63% 30.06 in 6.0 mi West 5.8 mph - N/A   Haze
11:56 AM 90.0 °F 97.9 °F 73.0 °F 57% 30.05 in 10.0 mi WSW 3.5 mph - N/A   Mostly Cloudy
12:56 PM 91.9 °F 100.7 °F 73.0 °F 54% 30.04 in 10.0 mi Calm Calm - N/A   Clear
1:56 PM 91.0 °F 101.6 °F 75.0 °F 59% 30.02 in 10.0 mi East 4.6 mph - 0.00 in   Mostly Cloudy
2:56 PM 90.0 °F 101.3 °F 75.9 °F 63% 30.01 in 10.0 mi SSE 8.1 mph - N/A Thunderstorm Mostly Cloudy
3:56 PM 79.0 °F - 73.0 °F 82% 30.02 in 10.0 mi SW 11.5 mph - 0.00 in Rain , Thunderstorm Light Thunderstorms and Rain
4:00 PM 78.8 °F - 73.4 °F 83% 30.02 in 10.0 mi SSW 6.9 mph - 0.00 in Rain , Thunderstorm Light Thunderstorms and Rain
4:56 PM 86.0 °F 96.9 °F 77.0 °F 74% 30.01 in 10.0 mi SSW 11.5 mph - 0.02 in Thunderstorm Thunderstorm
5:06 PM 87.8 °F 102.5 °F 78.8 °F 75% 30.02 in 10.0 mi Variable 5.8 mph - N/A   Clear
5:20 PM 86.0 °F 93.4 °F 73.4 °F 66% 30.03 in 10.0 mi ESE 4.6 mph - N/A Thunderstorm Partly Cloudy
5:35 PM 84.2 °F 90.9 °F 73.4 °F 70% 30.01 in 10.0 mi ENE 11.5 mph 17.3 mph 0.01 in   Scattered Clouds
5:56 PM 84.9 °F 92.1 °F 73.9 °F 69% 30.01 in 10.0 mi East 5.8 mph - 0.01 in   Scattered Clouds
6:56 PM 86.0 °F 92.2 °F 72.0 °F 63% 30.01 in 10.0 mi South 4.6 mph - 0.01 in   Clear
7:56 PM 81.0 °F 86.7 °F 75.0 °F 82% 30.02 in 10.0 mi SSE 5.8 mph - N/A   Clear
8:56 PM 80.1 °F 85.1 °F 75.0 °F 85% 30.04 in 10.0 mi Calm Calm - N/A   Clear
9:56 PM 78.1 °F - 75.0 °F 90% 30.06 in 10.0 mi SSW 4.6 mph - N/A   Clear
10:56 PM 77.0 °F - 75.0 °F 94% 30.06 in 10.0 mi Calm Calm - N/A   Clear
11:56 PM 75.9 °F - 75.0 °F 97% 30.06 in 10.0 mi Calm Calm - N/A   Clear